www.pogodaiklimat.ru
ПОГОДА в Вунстдрехте

Архив погоды в Вунстдрехте (Нидерланды)

Время
(UTC), дата
13 17.05
14 17.05
15 17.05
16 17.05
17 17.05
18 17.05
19 17.05
20 17.05
21 17.05
22 17.05
23 17.05
00 18.05
01 18.05
02 18.05
03 18.05
04 18.05
05 18.05
06 18.05
07 18.05
08 18.05
09 18.05
10 18.05
11 18.05
12 18.05
13 18.05
14 18.05
15 18.05
16 18.05
17 18.05
18 18.05
19 18.05
20 18.05
21 18.05
22 18.05
23 18.05
00 19.05
01 19.05
02 19.05
03 19.05
04 19.05
05 19.05
06 19.05
07 19.05
08 19.05
09 19.05
10 19.05
11 19.05
12 19.05
13 19.05
14 19.05
15 19.05
16 19.05
17 19.05
18 19.05
19 19.05
20 19.05
21 19.05
22 19.05
23 19.05
00 20.05
01 20.05
02 20.05
03 20.05
04 20.05
05 20.05
06 20.05
07 20.05
08 20.05
09 20.05
10 20.05
11 20.05
12 20.05
13 20.05
14 20.05
15 20.05
16 20.05
17 20.05
18 20.05
19 20.05
20 20.05
21 20.05
22 20.05
23 20.05
00 21.05
01 21.05
02 21.05
03 21.05
04 21.05
05 21.05
06 21.05
07 21.05
08 21.05
09 21.05
10 21.05
11 21.05
12 21.05
13 21.05
14 21.05
15 21.05
16 21.05
17 21.05
18 21.05
19 21.05
20 21.05
21 21.05
22 21.05
23 21.05
00 22.05
01 22.05
02 22.05
03 22.05
04 22.05
05 22.05
06 22.05
07 22.05
08 22.05
09 22.05
10 22.05
11 22.05
12 22.05
13 22.05
14 22.05
15 22.05
16 22.05
17 22.05
18 22.05
19 22.05
20 22.05
21 22.05
22 22.05
23 22.05
00 23.05
01 23.05
02 23.05
03 23.05
04 23.05
05 23.05
06 23.05
07 23.05
08 23.05
09 23.05
10 23.05
11 23.05
12 23.05
13 23.05
14 23.05
15 23.05
16 23.05
17 23.05
18 23.05
19 23.05
20 23.05
21 23.05
22 23.05
23 23.05
00 24.05
01 24.05
02 24.05
03 24.05
04 24.05
05 24.05
06 24.05
07 24.05
08 24.05
09 24.05
10 24.05
11 24.05
12 24.05
13 24.05
Ветер
(напр.,м/с)
Видим. Явления Облачность Т
(С)
Тd
(С)
f
(%)
Тe
(С)
Тes
(С)
Комфортность P
(гПа)
Po
(гПа)
Тmin
(С)
Tmax
(С)
R
(мм)
R24
(мм)
S
(см)
СЗ 6-8 {9} 30 км 10/9 1000 м +17.4 +13.2 76 +17 +17 1009.5 1007.6
СЗ 6-8 {9} 28 км 10/8 1000 м +16.5 +12.7 78 +15 +16 1009.3 1007.4
СЗ 5-9 {10} 35 км 10 баллов +17.0 +12.9 77 +16 +16 1009.1 1007.2
СЗ 5-8 {10} 45 км 10/10 1500 м +15.7 +12.3 80 +15 +15 1009.4 1007.5
СЗ 4-7 {8} 16 км слаб. ливневой дождь 10/10 1500 м +14.9 +12.8 87 +14 +14 1009.5 1007.5 0.1
СЗ 3-5 {10} 5000 м дождь 10 баллов +13.7 +13.1 96 +12 +13 1009.6 1007.7 +18.1 1
СЗ 3-5 {6} 4100 м в посл. час дождь 10/10 100 м +13.5 +13.2 98 +12 +12 1009.7 1007.8 0.2
С 1-3 {6} 3000 м дымка 10/10 100 м +13.6 +13.3 98 +14 +14 1010.2 1008.4
СЗ 2-4 {6} 2500 м в посл. час дождь 10 баллов +13.7 +13.5 99 +13 +13 1010.1 1008.1
СЗ 2-4 {5} 2000 м дымка 10/9 100 м +13.6 +13.4 99 +13 +13 1009.9 1008.0
СЗ 2-3 {5} 2100 м дымка 10/10 100 м +13.4 +13.1 98 +13 +13 1009.8 1007.9
З 2-3 {6} 1700 м дымка 10 баллов +12.8 +12.7 99 +12 +12 1009.7 1007.8
З 2-2 {3} 1900 м дымка 10/10 100 м +12.9 +12.8 99 +12 +12 1009.8 1007.9
З 2-3 {3} 2400 м дымка 9/9 +13.0 +12.8 99 +12 +12 1010.0 1008.1
З 3-4 {4} 1900 м слаб. ливневой дождь 10 баллов +13.1 +12.9 99 +12 +12 1010.0 1008.1
З 3-4 {4} 1700 м в посл. час дождь 10/10 100 м +13.3 +12.9 97 +12 +12 1010.5 1008.5
З 2-3 {6} 2300 м слаб. морось 10/10 300 м +13.0 +12.8 99 +12 +12 1010.7 1008.8 2
СЗ 5-7 {8} 2700 м слаб. морось 10 баллов +13.6 +13.3 98 +12 +12 1010.5 1008.6 +12.5 0.1 3.6
З 2-3 {6} 2800 м в посл. час морось 10/10 100 м +13.8 +13.1 96 +13 +13 1011.2 1009.3
З 1-2 {3} 3000 м дымка 10/10 100 м +14.2 +13.5 96 +14 +14 1011.5 1009.7
СЗ 2-3 {7} 4400 м дымка 10 баллов +14.7 +13.9 95 +14 +14 1011.7 1009.8
З 3-4 {4} 5000 м дымка 10/10 100 м +14.7 +13.6 93 +14 +14 1011.9 1010.0
З 2-3 {5} 8000 м дымка 10/10 200 м +15.1 +13.9 93 +15 +15 1012.0 1010.1
З 2-3 {7} 8000 м дымка 10 баллов +15.3 +13.6 90 +15 +15 1012.2 1010.4
З 3-5 {5} 9000 м дымка 10/10 300 м +16.2 +14.0 87 +16 +16 1012.0 1010.1
З 3-4 {5} 10 км 8/8 300 м +17.2 +14.7 85 +17 +19 1011.6 1009.7
З 5-7 {7} 10 км 8/8 300 м +16.7 +14.4 86 +16 +17 1011.3 1009.4
З 4-6 {7} 8000 м дымка 9/9 200 м +15.2 +13.6 90 +14 +14 1011.3 1009.4
З 3-4 {5} 10 км зарница 10/10 +15.8 +14.3 91 +15 +15 1011.3 1009.4
Ю 1-2 {7} 10 км в посл. час дождь 10 баллов +16.6 +14.5 87 +17 +18 1011.9 1010.0 +17.6
З 3-4 {4} 10 км зарница 10/10 +16.2 +14.5 90 +16 +16 1011.5 1009.6
СЗ 3-5 {6} 7000 м в посл. час дождь 9/9 +14.6 +13.6 94 +14 +14 1011.8 1009.8
З 2-2 {9} 4700 м слаб. ливневой дождь 9 баллов +13.5 +13.0 97 +13 +13 1012.1 1010.2
З 4-6 {6} 2900 м в посл. час дождь 10/10 +13.7 +13.2 97 +12 +12 1011.5 1009.6
З 4-6 {6} 3300 м дымка 10/10 100 м +13.3 +12.9 97 +11 +11 1011.6 1009.7
З 3-4 {9} 2800 м дымка 10 баллов +12.9 +12.6 98 +11 +11 1011.6 1009.7
СЗ 3-5 {5} 2600 м дымка 10/10 100 м +12.8 +12.5 98 +11 +11 1011.4 1009.5
СЗ 2-4 {5} 2500 м дымка 10/10 100 м +12.3 +12.1 99 +11 +11 1011.6 1009.7
СЗ 2-4 {5} 3700 м дымка 10 баллов +12.1 +11.6 97 +11 +11 1011.3 1009.4
З 3-4 {5} 2800 м дымка 10/10 100 м +12.2 +11.9 98 +10 +10 1011.3 1009.4
З 4-5 {5} 4200 м дымка 10/10 100 м +12.7 +12.3 97 +11 +11 1011.8 1009.8
З 4-5 {5} 3600 м дымка 10 баллов +12.3 +12.1 99 +10 +10 1012.1 1010.2 +12.0
З 3-4 {5} 5000 м дымка 10/10 100 м +12.9 +12.6 98 +11 +11 1012.5 1010.6
З 4-5 {6} 6000 м дымка 10/10 200 м +13.9 +12.7 92 +12 +12 1012.6 1010.7
З 3-5 {6} 7000 м дымка 9 баллов +15.5 +13.9 90 +15 +16 1012.7 1010.7
З 4-6 {6} 8000 м дымка 8/8 +16.4 +14.1 86 +16 +18 1012.5 1010.7
З 3-4 {5} 11 км 1/1 300 м +17.9 +14.5 80 +18 +30 опасность простуды 1012.6 1010.7
З 4-6 {6} 12 км ясно +19.2 +14.9 76 +21 +32 комфорт 1012.3 1010.4
З 5-7 {8} 17 км зарница 3/3 +19.7 +14.8 73 +21 +27 комфорт 1011.9 1010.0
З 5-7 {8} 25 км зарница 10/10 +18.0 +13.2 74 +18 +18 1011.2 1009.4
В 2-3 {8} 9000 м слаб. ливневой дождь 10 баллов +17.0 +14.9 87 +17 +17 1011.9 1010.0
С 3-10 {10} 12 км слаб. дождь 10/10 1500 м +16.3 +14.3 88 +16 +16 1012.1 1009.9 1
ЮЗ 1-2 {13} 12 км слаб. дождь 10/10 +13.9 +13.6 98 +14 +14 1011.4 1009.5 10
З 2-2 {13} 25 км в посл. час дождь 10 баллов +15.6 +14.5 93 +15 +15 1011.2 1009.4 +20.4
З 2-2 {3} 24 км 10/10 +15.5 +13.8 90 +15 +15 1011.4 1009.6
С 1-2 {3} 29 км 10/10 +13.9 +13.1 95 +14 +14 1011.9 1010.0
штиль 0-1 {3} 200 м туман 10 баллов +12.4 +12.3 99 +12 +12 1012.3 1010.4
штиль 0 {1} 300 м туман 6/6 +11.1 +11.0 99 +10 +10 1012.4 1010.4
штиль 0-1 {1} 200 м туман ясно +10.3 +10.2 99 +9 +9 1012.4 1010.5
С 2-2 {3} 4300 м в посл. час туман ясно +10.4 +10.3 99 +9 +9 1012.4 1010.5
С 1-2 {2} 2900 м дымка ясно +11.2 +11.1 99 +11 +11 1012.1 1010.2
штиль 0 {1} 400 м туман 3/3 +10.1 +9.9 99 +9 +9 1012.1 1010.1
С 1-3 {3} 3900 м слаб. морось с дождем 10 баллов +12.4 +12.3 99 +12 +12 1011.9 1010.0
1-2 {3} 3000 м в посл. час дождь 10/10 2000 м +12.7 +12.6 99 +13 +13 1011.8 1009.9
СЗ 1-1 {2} 3900 м дымка 10/10 2000 м +13.1 +13.0 99 +13 +13 1012.0 1010.1
С 2-4 {4} 4500 м в посл. час дождь 10/10 50 м +13.7 +13.6 99 +13 +13 1012.2 1010.3 +9.3 10.8
С 3-4 {5} 6000 м в посл. час дождь 10/8 200 м +14.1 +13.9 99 +13 +13 1012.4 1010.5
С 3-5 {5} 9000 м дымка 10/10 2000 м +15.0 +13.9 93 +14 +14 1012.3 1010.4
С 4-6 {8} 15 км слаб. ливневой дождь 10 баллов +14.8 +13.1 90 +14 +15 1012.8 1010.9
4-7 {7} 18 км в посл. час дождь 10/9 1500 м +16.3 +14.5 89 +16 +16 1012.4 1010.6
С 4-6 {7} 22 км 10/6 300 м +17.0 +14.3 84 +17 +19 1012.4 1010.4
С 3-6 {8} 19 км 10 баллов +17.8 +14.3 80 +18 +19 1011.9 1010.1
С 4-5 {6} 19 км 6/6 600 м +18.9 +14.7 77 +20 +24 1011.2 1009.3
СВ 3-5 {7} 5000 м ливневой дождь 10/8 600 м +16.8 +14.5 86 +17 +18 1011.0 1009.1 0.6
СВ 2-3 {7} 20 км морось с дождем 10/10 200 м +14.9 +13.7 93 +15 +16 1010.7 1008.9 6
З 2-3 {3} 11 км морось с дождем 10/10 +15.8 +15.2 96 +16 +16 1010.6 1008.7 0.2
З 3-4 {4} 12 км в посл. час дождь 10/10 +16.5 +15.2 92 +16 +16 1010.2 1008.3 0.1
С 1-2 {7} 14 км ясно +17.2 +15.4 89 +18 +20 1010.1 1008.2 +19.6
С 1-1 {2} 9000 м дымка ясно +15.9 +15.5 97 +17 +17 1010.4 1008.5
штиль 0 {2} 100 м туман ясно +13.5 +13.4 99 +13 +13 1010.4 1008.4
штиль 0 {2} 100 м туман 8 баллов +12.1 +12.1 100 +11 +11 1010.4 1008.5
штиль 0 {1} 300 м туман 1/1 <50 м +11.3 +11.2 99 +11 +11 1010.1 1008.2
штиль 0 {1} 600 м туман 1/1 +10.7 +10.7 100 +10 +10 1009.9 1008.0
штиль 0-1 {2} 1600 м в посл. час туман 9 баллов +10.2 +10.1 99 +9 +9 1009.7 1007.8
СВ 1-2 {2} 1600 м в посл. час туман 10/10 +10.5 +10.5 100 +10 +10 1009.3 1007.5
В 2-2 {2} 2500 м дымка 10/10 +12.0 +11.9 99 +11 +11 1008.8 1006.9
В 2-2 {3} 2600 м дымка 10 баллов +11.6 +11.4 99 +10 +10 1008.5 1006.7
В 2-2 {3} 1400 м в посл. час туман 10/10 +11.4 +11.3 99 +10 +10 1008.2 1006.4
СВ 3-4 {4} 4900 м дымка 10/10 +13.7 +13.6 99 +12 +12 1008.2 1006.3
СВ 3-4 {5} 7000 м дымка 10 баллов +15.2 +14.4 95 +14 +14 1008.1 1006.2 +9.8 6.4
СВ 4-5 {5} 10 км 10/10 +16.3 +15.0 92 +16 +16 1008.0 1006.2
В 3-5 {5} 15 км 10/10 +18.9 +16.1 84 +20 +20 1007.9 1006.0
В 3-4 {5} 20 км 10 баллов +20.7 +16.7 78 +25 +25 комфорт 1007.7 1005.8
В 3-5 {6} 27 км 10/10 +21.3 +15.0 67 +24 +24 комфорт 1007.7 1005.8
З 4-6 {6} 16 км 10/8 2000 м +19.1 +14.2 73 +20 +21 1007.8 1005.9
ЮЗ 5-8 {8} 12 км в посл. час дождь 10 баллов +19.9 +16.2 79 +22 +22 комфорт 1007.6 1005.7
З 6-8 {8} 7000 м зарница 10/10 600 м +18.9 +15.7 82 +20 +20 1007.8 1005.9
З 6-8 {8} 7000 м дым 10/10 +18.4 +15.1 81 +18 +18 1007.6 1005.7
З 4-6 {9} 7000 м слаб. морось 10 баллов +17.7 +15.3 86 +17 +17 1007.6 1005.7
З 4-7 {7} 10 км слаб. морось 10/10 2000 м +17.0 +14.8 87 +17 +17 1006.7 1005.1
З 3-4 {7} 13 км слаб. дождь 10/10 2000 м +16.2 +14.8 91 +16 +16 1006.9 1005.0 0.2
З 3-4 {9} 7000 м слаб. морось с дождем 10 баллов +15.6 +14.6 94 +15 +15 1006.7 1004.8 +22.0
З 2-3 {7} 3800 м слаб. дождь 10/10 +15.1 +14.8 98 +15 +15 1006.9 1004.9 0.5
ЮЗ 2-3 {4} 1800 м дождь 10/10 1500 м +14.9 +14.9 100 +14 +14 1007.0 1005.1 2
СЗ 2-3 {7} 1400 м дождь 10 баллов +14.6 +14.5 99 +14 +14 1006.8 1005.0 3
З 2-3 {4} 2000 м дождь 10/10 2000 м +14.3 +14.3 100 +14 +14 1006.3 1004.6 2
З 2-2 {3} 2600 м морось с дождем 10/10 +14.0 +14.0 100 +13 +13 1005.9 1004.1 0.7
З 2-3 {7} 3200 м слаб. морось 10 баллов +14.1 +14.1 100 +13 +13 1005.7 1003.9 0.1
ЮЗ 2-3 {3} 1600 м в посл. час морось 10/6 300 м +14.1 +14.1 100 +13 +13 1005.5 1003.7
З 5-7 {7} 1700 м дымка 10/8 200 м +14.3 +14.2 99 +12 +12 1005.3 1003.5
З 5-8 {8} 7000 м дымка 10 баллов +14.0 +13.8 99 +12 +12 1005.4 1003.5
ЮЗ 4-7 {8} 5000 м дымка 10/9 300 м +13.7 +13.4 98 +12 +12 1005.6 1003.6
ЮЗ 3-5 {9} 10 км в посл. час дождь 10/10 600 м +13.8 +12.7 93 +13 +13 1005.7 1003.9
ЮЗ 4-6 {9} 6000 м дымка 10 баллов +13.8 +13.3 97 +12 +12 1006.2 1004.3 +13.5 8.2
ЮЗ 4-7 {8} 8000 м дымка 10/8 600 м +14.2 +13.3 94 +13 +13 1006.7 1004.8
ЮЗ 5-8 {10} 10 км в посл. час дождь 10/8 600 м +14.4 +13.3 93 +13 +13 1007.1 1005.2
ЮЗ 4-7 {10} 16 км 10 баллов +14.9 +12.8 87 +14 +15 1007.5 1005.6
ЮЗ 5-9 {9} 30 км 10/10 1000 м +16.1 +12.7 80 +15 +15 1007.8 1006.0
ЮЗ 5-9 {9} 23 км 10/8 1000 м +16.0 +12.5 80 +15 +16 1008.4 1006.5
ЮЗ 5-7 {10} 29 км в посл. час дождь 8 баллов +18.1 +13.6 75 +18 +20 1008.6 1006.6
ЮЗ 5-8 {10} 35 км в посл. час дождь 10/6 1000 м +18.0 +12.9 72 +18 +19 1008.8 1006.9
ЮЗ 5-7 {9} 28 км 6/6 1000 м +18.7 +12.7 68 +19 +22 1008.9 1007.0
ЮЗ 5-8 {10} 27 км в посл. час дождь 10 баллов +18.3 +12.5 69 +18 +19 1009.1 1007.2
З 6-8 {12} 35 км 1/1 1000 м +18.6 +13.3 71 +19 +21 1009.6 1007.6
ЮЗ 4-8 {11} 40 км 10/10 1500 м +17.5 +12.5 72 +17 +17 1009.7 1007.9
ЮЗ 6-8 {12} 45 км 8 баллов +17.6 +11.7 68 +17 +17 1009.9 1008.0 +19.6
ЮЗ 4-8 {8} 40 км 1/1 1000 м +16.4 +11.6 73 +16 +16 1010.6 1008.7
ЮЗ 3-6 {7} 45 км ясно +15.3 +11.1 76 +15 +15 1011.3 1009.4
ЮЗ 2-4 {8} 35 км ясно +14.4 +11.1 81 +14 +14 1011.8 1009.9
ЮЗ 3-6 {6} 30 км ясно +14.3 +11.0 81 +13 +13 1012.2 1010.3
ЮЗ 4-6 {8} 29 км ясно +13.8 +11.0 83 +12 +12 1012.5 1010.5
Ю 3-7 {8} 23 км ясно +13.5 +11.2 86 +12 +12 1012.5 1010.6
ЮЗ 3-5 {8} 20 км ясно +13.1 +11.0 87 +12 +12 1012.5 1010.6
ЮЗ 4-6 {9} 20 км 10/10 300 м +12.9 +11.4 91 +11 +11 1012.5 1010.6
ЮЗ 5-7 {9} 20 км 10 баллов +13.0 +11.4 90 +11 +11 1012.4 1010.5
ЮЗ 5-8 {9} 22 км 8/8 600 м +13.2 +11.5 89 +11 +11 1012.6 1010.7
ЮЗ 4-6 {9} 25 км 10/10 600 м +13.6 +11.8 89 +12 +12 1013.0 1011.0
ЮЗ 4-7 {9} 24 км 10 баллов +14.1 +12.0 87 +13 +13 1013.6 1011.6 +12.7
ЮЗ 4-6 {7} 23 км 10/10 600 м +14.6 +12.2 86 +13 +13 1014.0 1012.0
ЮЗ 5-8 {8} 27 км 10/10 600 м +15.4 +12.3 82 +14 +14 1014.3 1012.4
ЮЗ 4-7 {8} 22 км 10 баллов +16.3 +12.6 79 +16 +16 1014.6 1012.7
ЮЗ 4-7 {8} 28 км 9/8 600 м +16.8 +12.3 75 +16 +18 1014.9 1012.9
Ю 2-3 {6} 20 км в посл. час дождь 10/8 1000 м +16.4 +15.0 91 +16 +18 1015.0 1013.2 3
ЮЗ 4-7 {8} 25 км в посл. час дождь 10/10 600 м +18.4 +13.8 75 +19 +21 1014.9 1013.0
ЮЗ 4-5 {6} 35 км в посл. час дождь 10/10 2000 м +17.9 +13.0 73 +18 +18 1014.9 1013.0
ЮЗ 4-7 {7} 30 км 10/10 +18.5 +13.1 71 +19 +19 1015.0 1013.1
З 3-5 {8} 35 км слаб. ливневой дождь 10/10 600 м +17.1 +12.1 72 +17 +17 1015.3 1013.3
1-1 {8} 35 км в посл. час дождь 10/8 +16.6 +14.6 88 +17 +18 1015.5 1013.5 0.1
З 2-3 {4} 40 км 10/10 1500 м +17.3 +12.3 72 +18 +18 1015.6 1013.6
С 1-1 {8} 40 км 10 баллов +17.5 +13.9 79 +19 +19 1015.5 1013.6 +19.6
Ю 1-2 {2} 24 км ясно +14.4 +13.2 92 +15 +15 1016.0 1014.0
штиль 0-1 {2} 11 км слаб. ливневой дождь 10/10 +13.4 +13.2 99 +13 +13 1016.5 1014.6
В 1-1 {2} 3100 м в посл. час дождь 6 баллов +12.0 +11.9 99 +12 +12 1017.0 1015.1
штиль 0-1 {1} 700 м туман 1/1 +10.9 +10.7 99 +10 +10 1017.1 1015.2
ЮВ 1-2 {3} 9000 м ливневой дождь 10/6 1000 м +12.5 +12.5 100 +12 +12 1017.4 1015.4 0.7
Ю 1-1 {3} 200 м туман 5 баллов +11.5 +11.4 99 +11 +11 1017.4 1015.5 0.3
В 1-1 {1} 800 м туман ясно +10.3 +10.3 100 +10 +10 1017.4 1015.4
штиль 0-1 {1} 100 м туман 8/8 +9.4 +9.3 99 +8 +8 1017.4 1015.5
штиль 0-1 {1} 100 м туман 10 баллов +9.3 +9.3 100 +8 +8 1017.4 1015.6
ЮВ 1-1 {1} 400 м туман 10/10 +8.8 +8.8 100 +8 +8 1017.6 1015.6
штиль 0-1 {1} 2800 м в посл. час туман 10/10 +10.4 +10.4 100 +10 +10 1017.8 1015.9
штиль 0-1 {1} 3900 м дымка 10 баллов +12.8 +12.8 100 +12 +12 1018.2 1016.4 +8.4 1 4.3
СЗ 1-2 {2} 7000 м дымка 10/10 1500 м +14.6 +14.2 97 +15 +15 1018.5 1016.6
СЗ 1-1 {2} 6000 м дымка 10/10 1500 м +15.1 +14.4 96 +16 +16 1018.7 1016.8
З 1-2 {2} 8000 м дымка 10 баллов +15.9 +14.4 91 +17 +17 1018.9 1017.0
СЗ 1-1 {2} 8000 м дымка 10/10 1000 м +16.2 +14.4 89 +17 +17 1019.2 1017.3
СЗ 1-2 {4} 3500 м ливневой дождь 10/9 300 м +14.5 +14.3 99 +15 +16 1019.4 1017.5 13
З 2-3 {4} 3000 м сильн. дождь 10/8 300 м +14.2 +14.1 99 +14 +15 1019.6 1017.6 5
З 2-3 {3} 6000 м слаб. дождь 10/6 1000 м +14.0 +13.9 99 +13 +16 1019.5 1017.6 5
Местоположение метеостанции Вунстдрехт (Нидерланды): широта 51.45 долгота 4.33 высота над уровнем моря 17 м.
В архиве по умолчанию представлена погода в Вунстдрехте за последнюю неделю. Архивные данные за месяц целиком и за предыдущие месяцы, начиная с января 2011 года, Вы можете получить, выбрав интересующий диапазон дат из раскрывающегося списка и нажав кнопку "Найти!".
*Определитесь, кто Вы:
Внимание! Время в таблицах - всемирное. Для получения местного времени необходимо прибавить поправку, которая равна 1 ч.
Некоторые строки с данными для отдельных станций могут быть выделены курсивом. Это означает, что фактические данные отсутствуют по различным причинам, а приведенные значения являются расчетными модельными данными для данного пункта наблюдений.
Смотрите также архив погоды в соседних городах и на ближайших метеорологических станциях:
Партнеры нашего сайта:      
Пояснения к столбцам:
  • Ветер - указаны скорость ветра в м/с - средняя за 10 мин, порывы в срок и между сроками (в фигурных скобках) и направление, откуда дует ветер: С - северный,
  • СВ - северо-восточный, В - восточный, ЮВ - юго-восточный, Ю - южный, ЮЗ - юго-западный, З - западный, СЗ - северо-западный.
  • Видимость - горизонтальная дальность видимости в метрах или километрах. При видимости от 1 до 10 км при отсутствии осадков обычно наблюдается дымка, при ухудшении видимости до 1 км и менее - туман. В сухую погоду видимость может ухудшаться дымом, пылью или мглою.
  • Явления - указаны атмосферные явления, наблюдавшиеся в срок или в последний час перед сроком; фигурными скобками обозначены явления, наблюдавшиеся между сроками (за 1-3 часа до срока); квадратными скобками обозначены град или гололедные отложения с указанием их диаметра в мм.
  • Облачность - указаны через наклонную черту общая и нижняя облачность в баллах и высота нижней границы облаков в метрах; квадратными скобками обозначены формы облаков: Ci - перистые, Cs - перисто-слоистые, Cc - перисто-кучевые, Ac - высококучевые, As - высокослоистые, Sc - слоисто-кучевые, Ns - слоисто-дождевые, Cu - кучевые, Cb - кучево-дождевые. Подробнее классификацию облаков см. в Атласе облаков (PDF).
  • T - Температура воздуха - температура, измеренная на высоте 2 м над землей.
  • Td - Температура точки росы - температура, при понижении до которой содержащийся в воздухе водяной пар достигнет насыщения.
  • f - Относительная влажность воздуха - влажноcть воздуха, измеренная на высоте 2 м над землей.
  • Te - Эффективная температура - температура, которую ощущает одетый по сезону человек в тени. Характеристика душности погоды. При расчете учитывается влияние влажности воздуха и скорости ветра на теплоощущения человека.
  • Tes - Эффективная температура на солнце - температура, которую ощущает человек, с поправкой на солнечный нагрев. Характеристика знойности погоды. Зависит от высоты солнца над горизонтом, облачности и скорости ветра. Ночью, в пасмурную погоду, а также при ветре 12 м/с и более поправка равна нулю.
  • P - Атмосферное давление - приведенное к уровню моря атмосферное давление.
  • Po - Атмосферное давление - измеренное на уровне метеостанции атмосферное давление.
  • Tmin - Минимальная температура - минимум температуры воздуха на высоте 2 м над землей.
  • Tmax - Максимальная температура - максимум температуры воздуха на высоте 2 м над землей.
  • R - Количество осадков - Количество выпавших осадков за период времени, мм. При наведении курсора мыши на число - период времени, за который выпало указанное количество осадков.
  • R24 - Количество осадков - Количество выпавших осадков за 24 часа, мм.
  • S - Снежный покров - Высота снежного покрова, см. При наведении курсора мыши на число - состояние снежного покрова и степень покрытия местности в баллах.